Tracking 30466 objects as of 17-May-2025
HD Live streaming from Space Station
objects crossing your sky now

THORAD AGENA D DEB

Track THORAD AGENA D DEB now!
10-day predictions


NORAD ID: 4950
Int'l Code: 1970-025GL
Perigee: 1,062.9 km
Apogee: 1,396.9 km
Inclination: 99.9 °
Period: 109.9 minutes
Semi major axis: 7600 km
RCS: 0.0796 m2 (small)
Launch date: April 8, 1970
Source: United States (US)
Launch site: AIR FORCE WESTERN TEST RANGE (AFWTR)

Note: This is SATELLITE DEBRIS
Your satellite tracking list
Your tracking list is empty




NASA's NSSDC Master Catalog

Two Line Element Set (TLE):
1 04950U 70025GL  25134.71609869  .00000024  00000-0  16459-3 0  9997
2 04950  99.8553  53.3326 0219742 218.2715 170.2710 13.10108059631323
Source of the keplerian elements: AFSPC